Zurück zum Katalog

COSMOS 1818 COOLANT

AktivLEO
NORAD 34174·DEBRIS·🇷🇺 Russia

Gestartet Feb 1, 1987 von Baikonur Cosmodrome

Loading…

Nächste Überflüge (nächste 24 Stunden)

TLE

VeraltetSource: Space-Track

Epoche: Sep 7, 2026, 09:11 UTC

1 34174U 87011E   26250.38283520  .00000571  00000-0  20374-3 0  9994
2 34174  65.0005 289.8811 0021989 279.7254  93.5561 14.42148848355689

Verfolge COSMOS 1818 COOLANT in Echtzeit mit AllMySat

Download on the App Store